Time,TemperatureF,DewpointF,PressureIn,WindDirection,WindDirectionDegrees,WindSpeedMPH,WindSpeedGustMPH,Humidity,HourlyPrecipIn,Conditions,Clouds,dailyrainin,SoftwareType,DateUTC
2013-07-11 00:12:00,66.1,62.0,29.93,NE,37,1.0,1.0,87,0.00,,,0.00,weatherlink.com 1.10,2013-07-11 04:12:00,
2013-07-11 00:27:00,66.1,62.0,29.94,NNE,30,1.0,1.0,87,0.00,,,0.00,weatherlink.com 1.10,2013-07-11 04:27:00,
2013-07-11 00:42:00,66.0,62.0,29.94,NNE,30,0.0,1.0,87,0.00,,,0.00,weatherlink.com 1.10,2013-07-11 04:42:00,
2013-07-11 00:57:00,65.8,62.0,29.94,NNE,30,1.0,1.0,88,0.00,,,0.00,weatherlink.com 1.10,2013-07-11 04:57:00,
2013-07-11 01:12:00,65.9,63.0,29.94,WNW,291,1.0,2.0,89,0.00,,,0.00,weatherlink.com 1.10,2013-07-11 05:12:00,
2013-07-11 01:27:00,65.3,62.0,29.94,WNW,291,0.0,2.0,88,0.00,,,0.00,weatherlink.com 1.10,2013-07-11 05:27:00,
2013-07-11 01:42:00,65.3,61.0,29.94,NW,324,0.0,1.0,87,0.00,,,0.00,weatherlink.com 1.10,2013-07-11 05:42:00,
2013-07-11 01:57:00,64.9,61.0,29.93,NW,316,1.0,1.0,86,0.00,,,0.00,weatherlink.com 1.10,2013-07-11 05:57:00,
2013-07-11 02:12:00,64.5,61.0,29.93,NW,316,0.0,1.0,87,0.00,,,0.00,weatherlink.com 1.10,2013-07-11 06:12:00,
2013-07-11 02:27:00,64.4,61.0,29.94,NW,316,0.0,1.0,87,0.00,,,0.00,weatherlink.com 1.10,2013-07-11 06:27:00,
2013-07-11 02:42:00,63.7,60.0,29.94,NW,316,0.0,1.0,88,0.00,,,0.00,weatherlink.com 1.10,2013-07-11 06:42:00,
2013-07-11 02:57:00,63.4,60.0,29.95,NW,316,0.0,1.0,88,0.00,,,0.00,weatherlink.com 1.10,2013-07-11 06:57:00,
2013-07-11 03:12:00,63.3,61.0,29.95,NW,316,0.0,1.0,91,0.00,,,0.00,weatherlink.com 1.10,2013-07-11 07:12:00,
2013-07-11 03:27:00,63.9,61.0,29.96,WNW,291,1.0,1.0,91,0.00,,,0.00,weatherlink.com 1.10,2013-07-11 07:27:00,
2013-07-11 03:42:00,64.0,60.0,29.96,WNW,291,0.0,1.0,87,0.00,,,0.00,weatherlink.com 1.10,2013-07-11 07:42:00,
2013-07-11 03:57:00,63.6,60.0,29.96,WNW,291,0.0,1.0,89,0.00,,,0.00,weatherlink.com 1.10,2013-07-11 07:57:00,
2013-07-11 04:12:00,63.2,61.0,29.97,WNW,291,0.0,1.0,91,0.00,,,0.00,weatherlink.com 1.10,2013-07-11 08:12:00,
2013-07-11 04:27:00,62.5,60.0,29.96,WNW,291,0.0,1.0,91,0.00,,,0.00,weatherlink.com 1.10,2013-07-11 08:27:00,
2013-07-11 04:42:00,62.8,60.0,29.97,West,273,1.0,2.0,91,0.00,,,0.00,weatherlink.com 1.10,2013-07-11 08:42:00,
2013-07-11 04:57:00,63.1,60.0,29.97,West,273,0.0,2.0,89,0.00,,,0.00,weatherlink.com 1.10,2013-07-11 08:57:00,
2013-07-11 05:12:00,62.7,60.0,29.98,West,273,0.0,1.0,90,0.00,,,0.00,weatherlink.com 1.10,2013-07-11 09:12:00,
2013-07-11 05:28:00,63.0,61.0,29.98,West,273,0.0,1.0,92,0.00,,,0.00,weatherlink.com 1.10,2013-07-11 09:28:00,
2013-07-11 05:43:00,62.9,60.0,29.98,West,273,0.0,1.0,90,0.00,,,0.00,weatherlink.com 1.10,2013-07-11 09:43:00,
2013-07-11 05:58:00,63.0,60.0,29.99,West,273,1.0,1.0,90,0.00,,,0.00,weatherlink.com 1.10,2013-07-11 09:58:00,
2013-07-11 06:13:00,63.2,60.0,30.00,West,273,0.0,2.0,90,0.00,,,0.00,weatherlink.com 1.10,2013-07-11 10:13:00,
2013-07-11 06:28:00,63.1,60.0,30.00,West,273,1.0,2.0,88,0.00,,,0.00,weatherlink.com 1.10,2013-07-11 10:28:00,
2013-07-11 06:43:00,63.4,60.0,30.01,West,273,1.0,2.0,88,0.00,,,0.00,weatherlink.com 1.10,2013-07-11 10:43:00,
2013-07-11 06:58:00,63.2,60.0,30.01,NNW,348,2.0,2.0,88,0.00,,,0.00,weatherlink.com 1.10,2013-07-11 10:58:00,
2013-07-11 07:13:00,63.5,59.0,30.02,WNW,296,0.0,2.0,86,0.00,,,0.00,weatherlink.com 1.10,2013-07-11 11:13:00,
2013-07-11 07:28:00,63.7,60.0,30.02,North,5,1.0,3.0,86,0.00,,,0.00,weatherlink.com 1.10,2013-07-11 11:28:00,
2013-07-11 07:43:00,64.5,60.0,30.02,North,10,1.0,2.0,86,0.00,,,0.00,weatherlink.com 1.10,2013-07-11 11:43:00,
2013-07-11 07:58:00,65.4,60.0,30.03,NNE,30,1.0,2.0,82,0.00,,,0.00,weatherlink.com 1.10,2013-07-11 11:58:00,
2013-07-11 08:13:00,65.4,60.0,30.03,NNE,27,0.0,3.0,83,0.00,,,0.00,weatherlink.com 1.10,2013-07-11 12:13:00,
2013-07-11 08:28:00,66.6,60.0,30.04,NE,46,1.0,3.0,79,0.00,,,0.00,weatherlink.com 1.10,2013-07-11 12:28:00,
2013-07-11 08:43:00,67.6,59.0,30.04,NE,38,1.0,5.0,74,0.00,,,0.00,weatherlink.com 1.10,2013-07-11 12:43:00,
2013-07-11 08:58:00,68.6,59.0,30.04,NNE,12,4.0,6.0,71,0.00,,,0.00,weatherlink.com 1.10,2013-07-11 12:58:00,
2013-07-11 09:28:00,69.5,58.0,30.04,East,95,2.0,6.0,68,0.00,,,0.00,weatherlink.com 1.10,2013-07-11 13:28:00,
2013-07-11 09:58:00,70.7,57.0,30.04,NNE,21,3.0,7.0,62,0.00,,,0.00,weatherlink.com 1.10,2013-07-11 13:58:00,
2013-07-11 10:13:00,70.9,56.0,30.04,ENE,59,2.0,7.0,60,0.00,,,0.00,weatherlink.com 1.10,2013-07-11 14:13:00,
2013-07-11 10:28:00,71.0,56.0,30.04,NW,319,3.0,10.0,60,0.00,,,0.00,weatherlink.com 1.10,2013-07-11 14:28:00,
2013-07-11 10:43:00,71.4,56.0,30.04,ENE,59,1.0,10.0,59,0.00,,,0.00,weatherlink.com 1.10,2013-07-11 14:43:00,
2013-07-11 10:58:00,72.1,57.0,30.04,North,11,7.0,8.0,59,0.00,,,0.00,weatherlink.com 1.10,2013-07-11 14:58:00,
2013-07-11 11:13:00,72.2,56.0,30.04,North,9,7.0,10.0,57,0.00,,,0.00,weatherlink.com 1.10,2013-07-11 15:13:00,
2013-07-11 11:28:00,72.7,57.0,30.05,NW,321,3.0,13.0,59,0.00,,,0.00,weatherlink.com 1.10,2013-07-11 15:28:00,
2013-07-11 11:58:00,73.5,56.0,30.04,SE,130,3.0,7.0,54,0.00,,,0.00,weatherlink.com 1.10,2013-07-11 15:58:00,
2013-07-11 12:28:00,73.0,55.0,30.05,NNE,33,2.0,6.0,54,0.00,,,0.00,weatherlink.com 1.10,2013-07-11 16:28:00,
2013-07-11 12:43:00,74.0,57.0,30.05,WNW,303,3.0,6.0,55,0.00,,,0.00,weatherlink.com 1.10,2013-07-11 16:43:00,
2013-07-11 13:13:00,73.9,56.0,30.04,NE,40,5.0,6.0,54,0.00,,,0.00,weatherlink.com 1.10,2013-07-11 17:13:00,
2013-07-11 13:28:00,74.0,57.0,30.05,NNE,21,1.0,5.0,55,0.00,,,0.00,weatherlink.com 1.10,2013-07-11 17:28:00,
2013-07-11 13:43:00,74.0,59.0,30.04,NNW,347,2.0,4.0,59,0.00,,,0.00,weatherlink.com 1.10,2013-07-11 17:43:00,
2013-07-11 13:59:00,75.4,58.0,30.04,NNE,16,2.0,6.0,55,0.00,,,0.00,weatherlink.com 1.10,2013-07-11 17:59:00,
2013-07-11 14:14:00,75.8,58.0,30.04,SSE,159,0.0,7.0,55,0.00,,,0.00,weatherlink.com 1.10,2013-07-11 18:14:00,
2013-07-11 14:29:00,75.9,59.0,30.04,NE,34,3.0,6.0,57,0.00,,,0.00,weatherlink.com 1.10,2013-07-11 18:29:00,
2013-07-11 14:44:00,75.9,58.0,30.03,NNW,332,2.0,9.0,55,0.00,,,0.00,weatherlink.com 1.10,2013-07-11 18:44:00,
2013-07-11 14:59:00,75.1,59.0,30.03,NNE,24,2.0,6.0,58,0.00,,,0.00,weatherlink.com 1.10,2013-07-11 18:59:00,
2013-07-11 15:44:00,76.6,58.0,30.03,SE,144,1.0,5.0,52,0.00,,,0.00,weatherlink.com 1.10,2013-07-11 19:44:00,
2013-07-11 15:59:00,76.8,57.0,30.02,NNE,13,4.0,7.0,51,0.00,,,0.00,weatherlink.com 1.10,2013-07-11 19:59:00,
2013-07-11 16:14:00,77.2,59.0,30.02,NNW,346,4.0,6.0,54,0.00,,,0.00,weatherlink.com 1.10,2013-07-11 20:14:00,
2013-07-11 16:44:00,77.0,58.0,30.03,ENE,71,6.0,6.0,52,0.00,,,0.00,weatherlink.com 1.10,2013-07-11 20:44:00,
2013-07-11 16:59:00,75.6,59.0,30.02,NNW,328,2.0,8.0,57,0.00,,,0.00,weatherlink.com 1.10,2013-07-11 20:59:00,
2013-07-11 17:14:00,77.9,58.0,30.02,NE,54,3.0,6.0,51,0.00,,,0.00,weatherlink.com 1.10,2013-07-11 21:14:00,
2013-07-11 17:29:00,77.1,58.0,30.02,NE,34,1.0,6.0,51,0.00,,,0.00,weatherlink.com 1.10,2013-07-11 21:29:00,
2013-07-11 17:44:00,77.4,60.0,30.01,NE,45,2.0,4.0,55,0.00,,,0.00,weatherlink.com 1.10,2013-07-11 21:44:00,
2013-07-11 18:29:00,77.6,57.0,30.01,NE,54,1.0,9.0,50,0.00,,,0.00,weatherlink.com 1.10,2013-07-11 22:29:00,
2013-07-11 18:44:00,77.4,56.0,30.01,NNW,341,1.0,11.0,48,0.00,,,0.00,weatherlink.com 1.10,2013-07-11 22:44:00,
2013-07-11 18:59:00,77.4,58.0,30.01,NNE,32,3.0,7.0,51,0.00,,,0.00,weatherlink.com 1.10,2013-07-11 22:59:00,
2013-07-11 19:14:00,77.3,59.0,30.01,NE,39,7.0,11.0,54,0.00,,,0.00,weatherlink.com 1.10,2013-07-11 23:14:00,
2013-07-11 19:29:00,75.6,56.0,30.01,ENE,76,2.0,6.0,50,0.00,,,0.00,weatherlink.com 1.10,2013-07-11 23:29:00,
2013-07-11 19:59:00,74.1,56.0,30.02,NE,38,1.0,4.0,54,0.00,,,0.00,weatherlink.com 1.10,2013-07-11 23:59:00,
2013-07-11 20:14:00,73.6,57.0,30.02,NNW,344,3.0,4.0,56,0.00,,,0.00,weatherlink.com 1.10,2013-07-12 00:14:00,
2013-07-11 20:29:00,73.0,58.0,30.02,NE,37,1.0,4.0,60,0.00,,,0.00,weatherlink.com 1.10,2013-07-12 00:29:00,
2013-07-11 20:44:00,72.1,58.0,30.02,ENE,71,0.0,3.0,62,0.00,,,0.00,weatherlink.com 1.10,2013-07-12 00:44:00,
2013-07-11 21:14:00,70.0,60.0,30.02,East,84,3.0,7.0,71,0.00,,,0.00,weatherlink.com 1.10,2013-07-12 01:14:00,
2013-07-11 21:29:00,69.1,61.0,30.02,ENE,72,2.0,4.0,74,0.00,,,0.00,weatherlink.com 1.10,2013-07-12 01:29:00,
2013-07-11 21:59:00,67.5,61.0,30.04,NE,44,1.0,2.0,79,0.00,,,0.00,weatherlink.com 1.10,2013-07-12 01:59:00,
2013-07-11 22:14:00,66.6,61.0,30.04,NE,46,0.0,2.0,81,0.00,,,0.00,weatherlink.com 1.10,2013-07-12 02:14:00,
2013-07-11 22:29:00,66.1,61.0,30.04,ENE,70,2.0,3.0,82,0.00,,,0.00,weatherlink.com 1.10,2013-07-12 02:29:00,
2013-07-11 22:44:00,65.8,60.0,30.04,ESE,109,2.0,4.0,81,0.00,,,0.00,weatherlink.com 1.10,2013-07-12 02:44:00,
2013-07-11 22:59:00,65.9,60.0,30.05,East,86,2.0,6.0,80,0.00,,,0.00,weatherlink.com 1.10,2013-07-12 02:59:00,
2013-07-11 23:14:00,65.4,60.0,30.05,East,83,0.0,2.0,82,0.00,,,0.00,weatherlink.com 1.10,2013-07-12 03:14:00,
2013-07-11 23:30:00,64.5,60.0,30.05,East,83,0.0,1.0,85,0.00,,,0.00,weatherlink.com 1.10,2013-07-12 03:30:00,
2013-07-11 23:44:00,63.9,60.0,30.06,East,83,0.0,0.0,86,0.00,,,0.00,weatherlink.com 1.10,2013-07-12 03:44:00,